Simultaneous Nadir Overpasses (SNOs) Predictions

Prediction of SNOs between NOAA-20 and METOP-B Satellite Orbit:

Table of predicted SNOs for the next 14.0 days since TLE Epoch: 7/20/2024
Index Date (NOAA-20) Time (NOAA-20) Lat,Lon (NOAA-20) SZA (NOAA-20 ) Date (METOP-B) Time (METOP-B) Lat,Lon (METOP-B) SZA (METOP-B ) Distance(km) Time Diff (sec)
1 07/22/2024 10:59:41 74.13, 3.77 54.39 07/22/2024 11:00:46 74.09, 6.97 54.13 97.62 65
2 07/22/2024 11:50:22 -74.05, 171.29 125.70 07/22/2024 11:51:29 -73.99, 174.06 125.95 84.99 67
3 07/22/2024 12:41:04 73.84, -20.89 54.07 07/22/2024 12:42:13 73.78, -19.11 53.88 55.54 69
4 07/22/2024 13:31:46 -73.76, 146.62 126.02 07/22/2024 13:32:57 -73.68, 147.99 126.20 43.38 71
5 07/22/2024 14:22:28 73.55, -45.58 53.75 07/22/2024 14:23:41 73.47, -45.17 53.63 15.48 73
6 07/22/2024 15:13:10 -73.47, 121.93 126.34 07/22/2024 15:14:24 -73.42, 122.05 126.41 6.21 74
7 07/22/2024 16:03:55 73.40, -70.62 53.60 07/22/2024 16:05:04 73.41, -70.65 53.59 1.19 69
8 07/22/2024 16:54:39 -73.42, 96.66 126.37 07/22/2024 16:55:46 -73.41, 96.68 126.40 1.39 67
9 07/22/2024 17:45:25 73.41, -96.00 53.62 07/22/2024 17:46:26 73.39, -96.02 53.60 1.52 61
10 07/22/2024 18:36:09 -73.43, 71.27 126.35 07/22/2024 18:37:08 -73.40, 71.31 126.40 3.23 59
11 07/22/2024 19:26:55 73.41,-121.39 53.64 07/22/2024 19:27:48 73.38,-121.39 53.60 3.26 53
12 07/22/2024 20:17:38 -73.38, 46.00 126.39 07/22/2024 20:18:30 -73.39, 45.95 126.39 1.90 52
13 07/22/2024 21:08:24 73.37,-146.66 53.61 07/22/2024 21:09:10 73.37,-146.76 53.60 3.18 46
14 07/22/2024 21:59:08 -73.38, 20.62 126.37 07/22/2024 21:59:52 -73.37, 20.58 126.39 1.62 44
15 07/22/2024 22:49:54 73.37,-172.04 53.63 07/22/2024 22:50:32 73.36,-172.13 53.61 2.98 38
16 07/22/2024 23:40:38 -73.39, -4.77 126.35 07/22/2024 23:41:14 -73.36, -4.79 126.38 2.97 36
17 07/23/2024 00:31:24 73.37, 162.57 53.64 07/23/2024 00:31:53 73.40, 162.62 53.65 2.75 29
18 07/23/2024 01:22:08 -73.39, -30.15 126.33 07/23/2024 01:22:35 -73.40, -30.05 126.34 3.45 27
19 07/23/2024 02:12:54 73.38, 137.19 53.66 07/23/2024 02:13:15 73.38, 137.25 53.66 2.01 21
20 07/23/2024 03:03:37 -73.35, -55.43 126.37 07/23/2024 03:03:58 -73.34, -55.53 126.38 3.40 21
21 07/23/2024 03:54:24 73.38, 111.80 53.68 07/23/2024 03:54:37 73.37, 111.88 53.66 2.83 13
22 07/23/2024 04:45:07 -73.35, -80.81 126.35 07/23/2024 04:45:19 -73.38, -80.78 126.33 2.86 12
23 07/23/2024 05:35:53 73.34, 86.53 53.65 07/23/2024 05:35:59 73.36, 86.51 53.67 2.40 6
24 07/23/2024 06:26:37 -73.36,-106.19 126.33 07/23/2024 06:26:41 -73.36,-106.15 126.33 1.60 4
25 07/23/2024 07:17:23 73.34, 61.14 53.67 07/23/2024 07:17:21 73.35, 61.14 53.67 0.46 2
26 07/23/2024 08:08:07 -73.36,-131.58 126.31 07/23/2024 08:08:03 -73.35,-131.52 126.32 2.05 4
27 07/23/2024 08:58:53 73.35, 35.76 53.69 07/23/2024 08:58:43 73.33, 35.77 53.68 1.48 10
28 07/23/2024 09:49:36 -73.31,-156.85 126.35 07/23/2024 09:49:25 -73.34,-156.89 126.32 3.04 11
29 07/23/2024 10:40:23 73.35, 10.38 53.71 07/23/2024 10:40:05 73.32, 10.41 53.68 3.43 18
30 07/23/2024 11:31:06 -73.32, 177.76 126.33 07/23/2024 11:30:47 -73.33, 177.74 126.31 1.17 19
31 07/23/2024 12:21:52 73.31, -14.90 53.67 07/23/2024 12:21:27 73.31, -14.96 53.68 2.14 25
32 07/23/2024 13:12:36 -73.32, 152.38 126.31 07/23/2024 13:12:09 -73.31, 152.37 126.31 0.93 27
33 07/23/2024 14:03:22 73.31, -40.28 53.69 07/23/2024 14:02:49 73.30, -40.33 53.69 2.15 33
34 07/23/2024 14:54:06 -73.33, 127.00 126.29 07/23/2024 14:53:31 -73.30, 127.01 126.30 2.78 35
35 07/23/2024 15:44:52 73.31, -65.67 53.71 07/23/2024 15:44:10 73.33, -65.59 53.74 3.36 42
36 07/23/2024 16:35:35 -73.28, 101.72 126.32 07/23/2024 16:34:53 -73.29, 101.64 126.30 2.87 42
37 07/23/2024 17:26:22 73.32, -91.05 53.73 07/23/2024 17:25:32 73.32, -90.96 53.74 3.03 50
38 07/23/2024 18:17:05 -73.29, 76.34 126.30 07/23/2024 18:16:15 -73.28, 76.27 126.29 2.37 50
39 07/23/2024 19:07:52 73.32,-116.44 53.75 07/23/2024 19:06:54 73.31,-116.33 53.74 3.83 58
40 07/23/2024 19:58:35 -73.29, 50.95 126.28 07/23/2024 19:57:37 -73.27, 50.90 126.29 3.23 58
41 07/23/2024 20:49:21 73.28,-141.71 53.71 07/23/2024 20:48:16 73.30,-141.69 53.75 2.24 65
42 07/23/2024 21:40:05 -73.29, 25.57 126.26 07/23/2024 21:38:58 -73.30, 25.64 126.24 2.56 67
43 07/23/2024 22:30:51 73.28,-167.09 53.73 07/23/2024 22:29:38 73.28,-167.06 53.75 1.04 73
44 07/23/2024 23:21:35 -73.30, 0.19 126.24 07/23/2024 23:20:20 -73.29, 0.28 126.24 3.02 75
45 07/24/2024 00:12:16 73.03, 168.07 53.47 07/24/2024 00:11:04 73.07, 167.13 53.59 30.70 72
46 07/24/2024 01:02:59 -73.00, -24.54 126.56 07/24/2024 01:01:47 -73.03, -25.64 126.44 35.60 72
47 07/24/2024 01:53:40 72.74, 143.33 53.16 07/24/2024 01:52:32 72.75, 141.13 53.34 72.58 68
48 07/24/2024 02:44:23 -72.70, -49.29 126.88 07/24/2024 02:43:15 -72.71, -51.63 126.69 77.43 68



Historial Predications of SNOs between NOAA-20 and METOP-B
